Theta_e
307 306 306 306 306 306 306 306 306 305 304 305 306 307 307 300 299 301 301 301 301 301 299 300 305 311 311 315 314 317 322 323 319 317 318 317 315 315 315 315 315 316 317 318 319
306 305 305 305 305 305 305 304 303 303 304 305 306 306 306 303 299 297 299 298 299 299 297 298 301 303 309 314 316 317 319 318 316 316 316 316 315 315 315 314 314 314 315 315 316
305 305 304 304 304 304 302 302 302 303 303 303 306 306 305 304 300 296 297 296 296 296 295 296 297 299 301 307 313 314 318 317 316 316 316 316 316 315 315 314 314 315 315 315 317
305 304 304 304 304 302 301 302 302 303 303 304 304 302 302 304 302 294 295 294 294 294 295 295 296 297 300 302 306 310 312 313 313 314 313 314 314 316 316 316 314 314 314 315 316
304 303 303 303 303 301 300 301 301 301 304 304 303 300 301 298 295 294 294 293 293 293 294 295 294 295 295 297 297 298 301 303 305 307 309 310 310 311 311 313 316 315 315 316 318
303 303 302 302 302 299 299 300 300 300 298 297 295 296 297 294 293 293 293 292 292 293 294 294 294 294 294 295 295 296 297 297 298 299 300 302 306 305 309 311 314 315 316 316 316
302 302 301 301 300 297 298 299 299 301 298 301 299 299 294 292 293 292 292 292 292 292 293 293 293 294 294 293 294 294 294 295 296 297 299 300 301 303 306 306 308 313 315 316 317
302 301 301 300 296 296 296 297 300 303 303 300 297 296 293 292 292 293 292 292 291 292 292 292 292 293 293 294 293 293 294 293 294 295 296 297 299 299 301 303 307 309 314 315 315
302 300 299 299 292 291 293 294 294 294 294 295 295 295 292 292 292 292 292 292 292 292 292 292 293 293 293 293 292 292 293 292 292 293 293 293 294 295 298 297 298 300 305 312 315
301 300 299 298 291 291 293 293 294 294 294 295 293 295 292 292 292 292 292 291 292 293 293 293 293 293 293 291 290 289 290 290 290 291 291 291 292 292 294 294 294 296 301 305 310
300 299 298 297 292 291 296 295 297 297 294 293 292 292 292 291 292 292 291 291 292 293 292 292 292 291 290 290 290 290 291 291 291 292 291 291 291 291 292 293 293 295 297 302 307
299 297 296 293 292 292 295 296 294 294 292 293 292 292 291 291 292 292 291 292 292 292 292 293 292 291 290 290 290 291 291 292 292 292 292 292 292 292 293 292 293 294 296 300 303
298 297 291 291 291 293 293 293 293 294 296 292 292 292 292 292 292 291 292 291 291 292 292 292 291 291 290 291 291 291 292 292 293 292 292 292 294 293 294 294 294 294 295 298 302
297 296 290 291 294 292 293 293 294 294 298 292 292 292 292 292 292 291 291 291 292 291 291 292 292 291 291 291 291 292 292 292 292 294 296 293 296 293 293 293 294 295 296 297 301
296 291 290 290 292 292 291 293 294 295 309 292 291 291 293 291 291 292 291 291 291 291 292 293 292 291 291 291 291 293 293 293 294 296 296 295 297 294 296 294 293 294 296 298 300
292 290 291 292 293 291 292 294 294 302 304 292 291 292 292 292 291 291 292 292 291 291 292 293 292 291 292 292 292 293 293 293 294 294 296 296 297 296 295 295 296 296 295 297 300
291 290 291 291 292 290 293 294 301 302 292 292 291 292 291 291 291 291 291 291 291 291 292 292 293 292 291 292 293 294 295 294 293 298 299 295 295 294 292 293 293 295 297 297 300
290 291 292 291 291 290 293 295 300 291 292 291 292 292 290 290 290 291 291 290 290 291 291 291 293 292 292 292 294 293 294 293 292 293 292 293 298 295 291 291 291 293 296 298 300
291 293 293 291 290 289 295 299 293 291 291 291 292 290 291 291 291 291 291 291 290 290 291 291 291 291 292 292 292 292 293 291 293 292 294 298 295 296 290 289 289 292 295 298 300
294 293 293 291 291 294 298 293 292 291 291 291 292 291 291 291 291 291 291 290 290 290 290 291 291 291 292 293 292 291 291 291 291 293 293 293 297 293 290 290 289 292 294 298 301
293 295 292 290 293 295 296 292 292 291 291 291 291 291 291 291 290 291 291 291 290 290 290 292 293 291 292 293 292 291 290 290 291 294 293 292 296 291 289 289 289 292 293 300 301
294 296 291 291 295 293 292 291 290 291 291 291 291 291 291 290 290 290 291 290 290 290 290 292 293 293 292 293 292 291 289 290 289 290 292 290 293 291 289 288 290 292 293 297 304
295 293 292 293 294 292 291 290 290 290 290 291 290 290 290 290 290 290 290 290 290 290 290 292 291 292 292 293 293 291 289 289 288 289 290 291 291 288 288 287 290 290 291 294 298
297 299 293 293 292 293 292 289 290 290 290 290 289 290 289 289 289 290 290 290 290 290 291 291 291 291 293 293 293 291 288 288 288 288 288 288 286 288 286 287 289 290 289 291 293
295 293 291 293 292 291 291 290 289 289 289 289 289 289 289 289 289 289 290 290 290 289 290 290 290 290 290 292 293 290 287 288 288 287 287 286 286 286 285 286 288 289 289 290 291
296 296 292 291 291 291 290 290 289 289 289 289 288 289 289 289 290 290 289 289 289 289 289 289 290 290 291 295 295 293 287 286 287 287 286 285 285 285 285 286 288 288 289 289 290
291 291 294 291 291 292 290 290 289 289 289 289 289 289 289 289 289 289 289 289 289 289 289 289 290 291 292 292 294 294 287 286 287 287 285 284 284 284 285 285 288 288 288 289 289
Wind_Speed
17 18 19 20 20 20 20 18 17 17 17 14 10 9 1 7 16 23 20 19 21 21 20 19 13 10 9 13 15 12 10 22 31 28 28 20 16 19 20 25 22 22 24 20 13
18 19 20 21 21 21 20 20 20 19 15 11 10 3 3 9 1 24 20 20 20 19 19 19 13 15 10 11 9 16 16 34 23 23 24 19 20 19 20 24 25 24 22 12 15
18 19 20 21 21 20 22 22 21 17 12 9 9 3 5 8 4 11 20 21 19 18 17 18 17 16 16 16 20 20 29 29 27 24 23 23 23 19 22 25 21 19 17 18 18
18 20 21 21 20 20 24 24 17 13 12 8 5 5 8 4 2 15 18 20 20 18 17 16 14 16 13 14 12 24 31 30 31 24 17 22 22 26 25 26 24 22 19 19 20
19 20 20 20 20 21 24 18 15 13 13 6 3 5 1 8 8 17 18 21 19 20 16 15 16 14 14 17 23 26 28 28 28 24 20 14 16 19 28 27 25 22 21 12 15
20 20 19 20 19 21 22 16 13 8 13 15 18 8 9 12 13 16 18 21 21 17 16 15 11 15 16 17 18 20 27 28 27 28 27 27 24 9 22 23 26 28 27 16 16
19 18 19 20 17 21 21 14 10 6 8 7 4 4 22 12 12 15 17 21 21 18 15 16 16 11 20 23 15 20 25 24 25 27 27 23 28 28 25 26 29 29 27 24 21
19 18 18 19 19 23 14 10 10 9 3 3 4 5 6 11 14 15 21 23 24 18 20 20 16 17 14 16 20 22 19 17 18 18 17 21 26 24 25 21 17 25 25 24 26
19 18 19 19 18 23 7 9 8 10 10 5 4 2 4 11 19 17 24 24 27 16 17 10 13 13 14 15 13 19 18 25 26 24 26 24 26 24 19 22 22 19 21 23 23
20 19 20 20 18 22 2 10 13 15 3 2 14 4 8 14 17 18 22 27 14 14 10 9 6 11 9 11 14 22 23 24 26 26 25 28 27 27 26 27 24 22 21 22 21
20 20 20 20 13 20 11 6 5 1 17 8 8 6 12 20 8 21 25 25 12 10 13 11 9 9 15 15 18 20 22 26 27 25 24 25 26 27 27 27 26 22 22 23 21
18 19 21 18 8 20 11 4 4 4 6 5 3 5 14 15 7 18 27 12 13 14 18 10 4 12 16 18 18 20 23 24 26 23 21 23 26 26 26 27 26 25 23 24 22
17 19 19 12 6 11 13 10 5 2 3 3 3 6 9 12 6 16 22 14 11 14 17 11 9 15 16 19 17 17 20 22 26 26 26 24 27 25 26 25 25 27 27 25 22
16 17 19 8 1 12 5 11 1 1 4 4 5 4 10 14 3 12 18 11 9 13 14 8 14 17 15 17 15 18 22 25 27 22 19 19 19 22 23 22 22 24 25 24 23
15 16 17 13 6 9 10 6 1 3 3 5 3 4 14 6 11 7 14 10 13 16 12 13 17 13 13 14 18 22 24 26 31 24 20 24 8 11 15 13 16 21 20 24 24
11 13 13 8 6 9 5 1 3 4 4 3 3 10 17 8 13 9 10 10 3 17 10 17 7 5 12 18 21 20 24 28 19 7 6 11 3 3 12 18 20 25 21 24 24
5 10 13 8 8 11 1 3 4 3 7 8 9 14 13 14 12 13 15 10 11 12 19 17 8 4 2 19 17 22 19 11 6 3 4 7 13 9 18 20 22 22 24 21 21
1 6 9 13 11 4 3 4 4 3 5 9 12 15 6 12 10 14 12 10 10 13 16 12 8 8 18 15 12 16 16 8 8 8 14 23 5 6 20 20 24 23 21 21 12
3 3 7 17 12 2 4 5 4 5 6 11 15 6 6 8 10 9 12 5 7 11 10 9 8 23 10 9 14 12 15 21 9 15 10 3 9 1 26 27 29 23 18 19 15
1 3 8 19 9 6 3 4 2 4 9 8 6 5 9 13 11 15 7 2 8 12 14 5 12 11 17 4 7 12 13 10 6 6 12 11 3 10 29 30 31 27 22 20 16
1 2 12 13 6 4 4 4 3 3 7 6 6 7 7 13 16 10 5 7 4 16 17 13 5 13 16 13 10 12 12 7 7 5 6 9 3 14 25 28 29 26 22 22 12
2 1 15 12 3 3 4 3 4 5 3 4 4 3 7 13 10 8 6 8 13 17 13 5 6 13 24 8 5 16 15 9 5 10 6 7 5 19 21 26 22 22 19 21 16
2 3 9 9 4 4 3 3 2 6 6 4 4 4 9 11 9 9 8 11 11 19 9 8 5 11 10 4 3 6 17 14 10 9 7 9 10 20 23 25 20 23 25 19 21
2 2 3 7 4 3 2 5 5 3 4 5 8 7 9 15 7 10 19 12 19 15 11 12 9 11 10 17 15 9 24 16 11 6 11 10 27 19 30 32 31 28 23 21 18
4 3 2 3 5 4 1 1 6 7 3 4 3 5 11 6 19 6 20 21 17 4 14 4 7 15 20 17 5 13 19 18 16 13 10 22 19 21 28 27 24 21 24 22 21
2 1 1 2 1 1 1 2 6 6 3 6 5 13 14 13 14 20 20 18 9 8 13 8 8 17 15 3 7 1 18 18 15 11 11 18 17 23 25 25 23 25 25 22 22
3 3 1 2 1 2 2 3 4 8 4 6 10 12 15 12 17 21 18 15 14 14 10 8 11 12 5 15 4 2 14 17 16 9 17 20 22 25 26 26 22 24 22 22 22
Wind_Direction
8 4 358 355 353 351 349 347 345 342 338 338 339 346 115 127 60 45 33 360 351 345 340 336 329 328 282 254 245 253 251 253 253 255 269 272 265 265 228 259 261 262 255 250 242
6 2 357 353 350 350 352 347 342 339 342 350 355 10 160 181 17 39 11 0 352 347 345 341 330 312 284 247 242 217 239 251 261 284 290 292 283 298 252 249 245 257 259 268 236
3 360 356 352 352 353 350 345 340 343 345 352 9 57 143 160 123 16 360 358 353 348 342 334 323 318 283 264 241 242 243 264 269 279 283 289 289 284 280 249 247 245 238 232 238
2 359 355 355 355 353 350 346 350 359 358 353 16 87 121 170 345 359 350 350 349 342 336 336 331 309 288 282 274 254 254 265 274 285 316 310 322 292 266 263 266 263 274 273 219
2 359 359 360 356 353 351 354 356 359 11 61 64 116 97 66 18 344 344 344 344 346 341 335 316 322 283 299 305 290 285 283 285 280 267 287 290 292 282 292 276 274 267 261 263
3 2 2 357 354 353 354 355 357 38 70 75 65 64 78 74 354 351 347 349 347 346 332 333 325 317 293 283 284 293 295 290 290 289 287 281 269 260 273 286 284 280 259 251 256
3 4 1 356 358 356 356 5 21 78 142 35 53 356 58 43 349 359 353 353 347 335 324 326 320 309 311 300 292 308 303 295 287 286 283 293 279 251 266 263 260 265 270 249 249
2 4 3 359 1 358 7 19 56 73 110 352 40 48 87 18 7 352 352 346 338 329 332 325 322 309 288 306 297 287 288 281 280 304 304 285 277 291 287 290 317 285 244 254 245
2 4 2 0 4 1 54 51 71 79 60 22 358 346 64 351 1 352 350 336 327 325 316 309 314 305 289 287 304 306 308 311 305 302 300 287 283 285 298 301 287 286 295 269 241
1 2 360 1 6 3 15 93 81 26 344 256 27 153 37 347 339 344 349 334 337 317 318 340 321 290 315 336 308 305 298 297 292 292 290 288 286 284 282 280 279 276 269 272 278
360 357 356 357 3 7 15 287 231 119 39 61 56 50 334 345 324 354 351 337 342 349 355 335 301 353 330 321 306 297 288 288 290 294 288 276 274 273 273 269 268 269 264 265 262
3 356 354 351 341 14 34 44 36 355 78 62 49 8 353 347 321 356 354 353 340 352 350 335 21 344 319 303 296 292 289 289 291 296 289 289 285 276 264 262 261 260 261 257 258
0 357 359 356 28 7 36 21 313 294 272 66 25 340 341 336 330 355 0 342 347 344 346 314 322 327 319 316 308 303 299 300 298 301 290 286 280 272 266 254 250 248 249 250 249
357 358 7 7 8 350 39 346 322 268 242 46 6 39 345 327 275 356 3 347 325 336 330 293 316 317 314 311 332 309 314 305 299 298 289 301 293 291 288 279 264 235 232 233 242
355 1 4 41 357 14 326 342 171 253 282 23 19 323 335 16 321 1 353 346 326 332 300 316 310 319 311 331 327 308 312 296 291 281 275 282 260 295 299 271 258 263 254 224 223
4 6 13 8 18 349 331 157 270 243 11 18 349 346 343 339 347 331 337 16 347 319 285 311 275 283 306 324 314 321 317 305 284 281 255 267 279 49 8 343 337 324 239 252 210
20 18 31 20 341 335 157 241 270 2 12 347 331 334 330 339 329 352 342 40 19 342 343 326 304 271 325 327 316 336 330 337 355 252 303 315 309 49 14 352 340 320 310 242 238
359 14 13 13 341 330 213 245 357 53 348 341 331 321 333 353 340 335 345 357 24 353 320 344 331 20 331 350 334 333 348 329 312 324 309 302 357 79 18 3 346 324 318 300 268
232 329 356 345 348 304 262 40 4 0 337 325 319 319 346 345 337 339 349 339 353 357 359 323 301 327 349 351 25 336 349 310 268 277 287 322 24 53 355 354 343 333 327 310 283
306 276 3 343 354 264 36 79 354 341 323 323 330 351 326 336 333 336 334 39 342 348 345 305 297 299 342 3 27 354 339 333 326 309 325 326 11 8 355 344 337 341 334 311 271
293 240 353 357 355 46 54 45 335 342 326 321 327 306 319 329 327 326 301 311 30 329 335 313 270 289 312 339 19 11 355 343 289 272 327 329 28 26 348 337 328 333 334 323 247
316 266 350 352 32 43 54 13 343 304 304 296 295 296 298 323 313 318 308 332 335 336 327 343 293 301 305 101 94 42 358 346 338 336 331 292 291 21 341 333 327 337 338 354 320
27 15 360 342 39 53 93 355 308 326 330 325 308 318 312 309 316 303 329 320 330 338 336 325 302 313 323 153 305 26 17 350 324 326 24 324 308 330 336 334 338 354 2 354 357
44 20 62 54 68 42 14 13 350 331 297 320 292 296 323 318 299 291 303 328 324 319 335 319 280 282 300 306 307 5 14 355 345 356 320 345 313 333 340 346 349 360 352 1 0
12 61 35 18 52 64 39 356 332 352 339 322 285 293 332 307 313 279 320 326 329 35 334 11 290 317 317 299 146 46 18 351 354 21 360 327 329 345 339 339 340 349 356 359 3
75 52 54 100 121 145 120 354 326 337 293 325 304 317 312 304 290 306 320 319 316 324 333 335 294 323 307 294 291 147 12 355 354 10 347 346 345 340 334 338 344 359 355 355 0
76 86 268 153 123 295 36 350 312 324 289 284 312 311 309 318 313 298 292 283 273 294 309 310 325 322 295 331 292 145 6 344 339 17 7 6 333 331 337 340 343 353 353 356 353